When you browse on this site, cookies collect data to enhance your experience and personalize the content and advertising you see.
Visit our Privacy Policy to learn more. By continuing to use the site, you agree to this use of cookies and data.
  • în România
  • Lista ţărilor
  • Pe 7 zile
  • Temperatura apei
  • Hartă satelitară
  • Meteo pe hartă
  • Widget-uri
  • user-avatar
    Intrare

    Meteo pe oră la Akaba

    Astăzi, 21 Ianuarie, Luni

    Timp Temperatura Precipitaţii Vânt Presiune Umiditate
    00:00 +19°C° 0 mm 1 m/s 752 mmHg 19%
    01:00 +19°C° 0 mm 1 m/s 752 mmHg 19%
    02:00 +19°C° 0 mm 1 m/s 751 mmHg 19%
    03:00 +17°C° 0 mm 2 m/s 751 mmHg 20%
    04:00 +17°C° 0 mm 2 m/s 751 mmHg 21%
    05:00 +17°C° 0 mm 2 m/s 751 mmHg 22%
    06:00 +18°C° 0 mm 2 m/s 751 mmHg 23%
    07:00 +18°C° 0 mm 2 m/s 751 mmHg 23%
    08:00 +20°C° 0 mm 1 m/s 752 mmHg 24%
    09:00 +21°C° 0 mm 1 m/s 752 mmHg 24%
    10:00 +23°C° 0 mm 1 m/s 752 mmHg 23%
    11:00 +22°C° 0 mm 0 m/s 752 mmHg 23%
    12:00 +24°C° 0 mm 1 m/s 751 mmHg 24%
    13:00 +25°C° 0 mm 1 m/s 751 mmHg 24%
    14:00 +25°C° 0 mm 1 m/s 750 mmHg 25%
    15:00 +25°C° 0 mm 1 m/s 750 mmHg 26%
    16:00 +24°C° 0 mm 1 m/s 750 mmHg 27%
    17:00 +23°C° 0 mm 1 m/s 750 mmHg 28%
    18:00 +22°C° 0 mm 1 m/s 750 mmHg 29%
    19:00 +21°C° 0 mm 1 m/s 751 mmHg 31%
    20:00 +20°C° 0 mm 1 m/s 751 mmHg 32%
    21:00 +20°C° 0 mm 1 m/s 751 mmHg 33%
    22:00 +19°C° 0 mm 1 m/s 751 mmHg 33%
    23:00 +19°C° 0 mm 1 m/s 751 mmHg 34%

    Mâine, 22 Ianuarie, Marţi

    Timp Temperatura Precipitaţii Vânt Presiune Umiditate
    00:00 +18°C° 0 mm 1 m/s 751 mmHg 34%
    01:00 +18°C° 0 mm 1 m/s 751 mmHg 34%
    02:00 +16°C° 0 mm 1 m/s 751 mmHg 34%
    03:00 +16°C° 0 mm 1 m/s 750 mmHg 34%
    04:00 +16°C° 0 mm 1 m/s 750 mmHg 34%
    05:00 +15°C° 0 mm 1 m/s 750 mmHg 34%
    06:00 +16°C° 0 mm 1 m/s 750 mmHg 33%
    07:00 +18°C° 0 mm 1 m/s 751 mmHg 31%
    08:00 +19°C° 0 mm 1 m/s 751 mmHg 29%
    09:00 +20°C° 0 mm 1 m/s 751 mmHg 27%
    10:00 +20°C° 0 mm 0 m/s 751 mmHg 25%
    11:00 +21°C° 0 mm 0 m/s 751 mmHg 23%
    12:00 +24°C° 0 mm 1 m/s 750 mmHg 21%
    13:00 +24°C° 0 mm 1 m/s 750 mmHg 20%
    14:00 +25°C° 0 mm 1 m/s 749 mmHg 18%
    15:00 +24°C° 0 mm 1 m/s 750 mmHg 19%
    16:00 +23°C° 0 mm 2 m/s 750 mmHg 20%
    17:00 +21°C° 0 mm 2 m/s 750 mmHg 21%
    18:00 +20°C° 0 mm 2 m/s 750 mmHg 24%
    19:00 +19°C° 0 mm 2 m/s 750 mmHg 26%
    20:00 +18°C° 0 mm 2 m/s 751 mmHg 29%
    21:00 +18°C° 0 mm 2 m/s 751 mmHg 30%
    22:00 +17°C° 0 mm 2 m/s 751 mmHg 31%
    23:00 +16°C° 0 mm 1 m/s 751 mmHg 32%

    Poimâine, 23 Ianuarie, Miercuri

    Timp Temperatura Precipitaţii Vânt Presiune Umiditate
    00:00 +16°C° 0 mm 1 m/s 751 mmHg 33%
    01:00 +15°C° 0 mm 1 m/s 751 mmHg 34%
    02:00 +15°C° 0 mm 1 m/s 751 mmHg 35%
    03:00 +15°C° 0 mm 2 m/s 750 mmHg 35%
    04:00 +14°C° 0 mm 2 m/s 750 mmHg 36%
    05:00 +14°C° 0 mm 2 m/s 750 mmHg 36%
    06:00 +15°C° 0 mm 2 m/s 750 mmHg 33%
    07:00 +16°C° 0 mm 2 m/s 751 mmHg 31%
    08:00 +17°C° 0 mm 2 m/s 751 mmHg 28%
    09:00 +19°C° 0 mm 1 m/s 751 mmHg 24%
    10:00 +21°C° 0 mm 1 m/s 751 mmHg 21%
    11:00 +23°C° 0 mm 1 m/s 750 mmHg 17%
    12:00 +24°C° 0 mm 1 m/s 750 mmHg 16%
    13:00 +24°C° 0 mm 1 m/s 749 mmHg 15%
    14:00 +25°C° 0 mm 2 m/s 748 mmHg 13%
    15:00 +24°C° 0 mm 1 m/s 748 mmHg 14%
    16:00 +23°C° 0 mm 1 m/s 748 mmHg 15%
    17:00 +23°C° 0 mm 1 m/s 748 mmHg 16%
    18:00 +22°C° 0 mm 1 m/s 748 mmHg 17%
    19:00 +20°C° 0 mm 2 m/s 749 mmHg 18%
    20:00 +20°C° 0 mm 2 m/s 749 mmHg 19%
    21:00 +19°C° 0 mm 2 m/s 749 mmHg 20%
    22:00 +19°C° 0 mm 2 m/s 749 mmHg 20%
    23:00 +19°C° 0 mm 2 m/s 749 mmHg 20%

    24 Ianuarie, Joi

    Timp Temperatura Precipitaţii Vânt Presiune Umiditate
    00:00 +18°C° 0 mm 2 m/s 748 mmHg 20%
    01:00 +18°C° 0 mm 2 m/s 748 mmHg 20%
    02:00 +17°C° 0 mm 2 m/s 748 mmHg 19%
    03:00 +17°C° 0 mm 2 m/s 748 mmHg 19%
    04:00 +17°C° 0 mm 3 m/s 748 mmHg 18%
    05:00 +17°C° 0 mm 3 m/s 748 mmHg 18%
    06:00 +18°C° 0 mm 3 m/s 748 mmHg 17%
    07:00 +19°C° 0 mm 3 m/s 748 mmHg 17%
    08:00 +19°C° 0 mm 3 m/s 748 mmHg 16%
    09:00 +21°C° 0 mm 4 m/s 748 mmHg 16%
    10:00 +23°C° 0 mm 4 m/s 748 mmHg 16%
    11:00 +26°C° 0 mm 5 m/s 748 mmHg 16%
    12:00 +27°C° 0 mm 5 m/s 747 mmHg 16%
    13:00 +27°C° 0 mm 6 m/s 747 mmHg 17%
    14:00 +28°C° 0 mm 7 m/s 747 mmHg 17%
    15:00 +27°C° 0 mm 5 m/s 747 mmHg 19%
    16:00 +25°C° 0 mm 4 m/s 747 mmHg 21%
    17:00 +24°C° 0 mm 3 m/s 747 mmHg 23%
    18:00 +22°C° 0 mm 3 m/s 748 mmHg 25%
    19:00 +21°C° 0 mm 2 m/s 749 mmHg 26%
    20:00 +20°C° 0 mm 2 m/s 749 mmHg 28%
    21:00 +20°C° 0 mm 2 m/s 749 mmHg 29%
    22:00 +19°C° 0 mm 2 m/s 750 mmHg 30%
    23:00 +19°C° 0 mm 2 m/s 750 mmHg 31%

    25 Ianuarie, Vineri

    Timp Temperatura Precipitaţii Vânt Presiune Umiditate
    00:00 +19°C° 0 mm 1 m/s 750 mmHg 33%
    01:00 +19°C° 0 mm 1 m/s 750 mmHg 36%
    02:00 +18°C° 0 mm 1 m/s 750 mmHg 38%
    03:00 +18°C° 0 mm 1 m/s 750 mmHg 41%
    04:00 +16°C° 0 mm 1 m/s 750 mmHg 43%
    05:00 +16°C° 0 mm 1 m/s 750 mmHg 45%
    06:00 +18°C° 0 mm 1 m/s 750 mmHg 44%
    07:00 +19°C° 0 mm 1 m/s 751 mmHg 43%
    08:00 +20°C° 0 mm 1 m/s 751 mmHg 42%
    09:00 +22°C° 0 mm 1 m/s 751 mmHg 44%
    10:00 +23°C° 0 mm 1 m/s 751 mmHg 45%
    11:00 +24°C° 0 mm 1 m/s 750 mmHg 47%
    12:00 +25°C° 0 mm 2 m/s 750 mmHg 48%
    13:00 +26°C° 0 mm 3 m/s 749 mmHg 50%
    14:00 +27°C° 0 mm 4 m/s 749 mmHg 52%
    15:00 +27°C° 0 mm 3 m/s 749 mmHg 54%
    16:00 +26°C° 0 mm 3 m/s 749 mmHg 57%
    17:00 +26°C° 0 mm 3 m/s 749 mmHg 59%
    18:00 +24°C° 0 mm 2 m/s 749 mmHg 63%
    19:00 +23°C° 0 mm 2 m/s 749 mmHg 67%
    20:00 +22°C° 0 mm 1 m/s 750 mmHg 71%
    21:00 +22°C° 0 mm 1 m/s 750 mmHg 72%
    22:00 +21°C° 0 mm 1 m/s 750 mmHg 74%
    23:00 +21°C° 0 mm 1 m/s 750 mmHg 76%

    26 Ianuarie, Sâmbătă

    Timp Temperatura Precipitaţii Vânt Presiune Umiditate
    00:00 +20°C° 0 mm 1 m/s 750 mmHg 77%
    01:00 +20°C° 0 mm 1 m/s 749 mmHg 78%
    02:00 +20°C° 0 mm 1 m/s 749 mmHg 79%
    03:00 +20°C° 0 mm 1 m/s 749 mmHg 79%
    04:00 +19°C° 0 mm 1 m/s 749 mmHg 80%
    05:00 +19°C° 0 mm 1 m/s 749 mmHg 81%
    06:00 +20°C° 0 mm 1 m/s 749 mmHg 77%
    07:00 +21°C° 0 mm 1 m/s 749 mmHg 72%
    08:00 +21°C° 0 mm 1 m/s 749 mmHg 68%
    09:00 +23°C° 0 mm 1 m/s 749 mmHg 65%
    10:00 +24°C° 0 mm 2 m/s 749 mmHg 62%
    11:00 +25°C° 0 mm 2 m/s 749 mmHg 58%
    12:00 +26°C° 0 mm 2 m/s 748 mmHg 58%
    13:00 +27°C° 0 mm 3 m/s 747 mmHg 57%
    14:00 +27°C° 0 mm 4 m/s 747 mmHg 56%
    15:00 +27°C° 0.1 mm 3 m/s 747 mmHg 60%
    16:00 +26°C° 0.1 mm 3 m/s 747 mmHg 65%
    17:00 +26°C° 0.1 mm 3 m/s 747 mmHg 69%
    18:00 +25°C° 0 mm 2 m/s 747 mmHg 73%
    19:00 +24°C° 0 mm 2 m/s 747 mmHg 77%
    20:00 +24°C° 0 mm 2 m/s 748 mmHg 81%
    21:00 +24°C° 0.1 mm 1 m/s 747 mmHg 81%
    22:00 +23°C° 0.1 mm 1 m/s 747 mmHg 82%
    23:00 +23°C° 0.1 mm 1 m/s 747 mmHg 82%
    Arată mai mult